Mount Sterling, KY

12:11 PM EDT on March 26, 2017 (GMT -0400)
Mount Sterling-Montgomery County

Weather History for KIOB - November, 2015

Change the Weather History Date:

Friday, November 13, 2015

  Actual Average Record
Temperature  
Mean Temperature 45 °F -  
Max Temperature 53 °F 55 °F 59 °F (2016)
Min Temperature 37 °F 34 °F 17 °F (2013)
Degree Days  
Heating Degree Days 20    
Moisture  
Dew Point 28 °F    
Average Humidity 54    
Maximum Humidity 76    
Minimum Humidity 28    
Precipitation  
Precipitation 0.00 in - - ()
Sea Level Pressure  
Sea Level Pressure 30.16 in    
Wind  
Wind Speed 10 mph (WNW)    
Max Wind Speed 20 mph    
Max Gust Speed 29 mph    
Visibility 10 miles    
Events      
Averages and records for this station are not official NWS values.
T = Trace of Precipitation, MM = Missing Value Source: NWS Daily Summary

Daily Weather History Graph

Daily Weather History Graph

Search for Another Location

Airport or City:

Trip Planner

Search our weather history database for the weather conditions in past years. The results will help you decide how hot, cold, wet, or windy it might be!

Date:

Astronomy

Nov. 13, 2015 Rise Set
Actual Time 7:14 AM EST 5:25 PM EST
Civil Twilight 6:46 AM EST 5:53 PM EST
Nautical Twilight 6:14 AM EST 6:25 PM EST
Astronomical Twilight 5:43 AM EST 6:56 PM EST
Moon 8:47 AM EST (11/13) 7:11 PM EST (11/13)
Length of Visible Light 11h 07m
Length of Day
10h 11m
Waxing Crescent, 4% of the Moon is Illuminated
Nov 13
Waxing Crescent
Nov 19
First Quarter
Nov 25
Full
Dec 3
Last Quarter
Dec 11
New

Hourly Weather History & Observations

Time (EST) Temp. Windchill Dew Point Humidity Pressure Visibility Wind Dir Wind Speed Gust Speed Precip Events Conditions
12:15 AM 44.6 °F 39.7 °F 37.4 °F 76% 30.04 in 10.0 mi WSW 9.2 mph 18.4 mph N/A   Clear
12:35 AM 44.6 °F 39.7 °F 37.4 °F 76% 30.04 in 10.0 mi WSW 9.2 mph - N/A   Clear
12:55 AM 44.6 °F 39.7 °F 37.4 °F 76% 30.04 in 10.0 mi West 9.2 mph - N/A   Clear
1:15 AM 44.6 °F 39.7 °F 37.4 °F 76% 30.05 in 10.0 mi West 9.2 mph - N/A   Clear
1:35 AM 44.6 °F 38.4 °F 37.4 °F 76% 30.06 in 10.0 mi West 12.7 mph 18.4 mph N/A   Clear
1:55 AM 44.6 °F 38.8 °F 37.4 °F 76% 30.06 in 10.0 mi West 11.5 mph 18.4 mph N/A   Clear
2:15 AM 44.6 °F 38.4 °F 35.6 °F 71% 30.06 in 10.0 mi West 12.7 mph - N/A   Clear
2:35 AM 44.6 °F 39.7 °F 35.6 °F 71% 30.07 in 10.0 mi West 9.2 mph 16.1 mph N/A   Clear
2:55 AM 42.8 °F 37.0 °F 35.6 °F 76% 30.08 in 10.0 mi WNW 10.4 mph 16.1 mph N/A   Clear
3:15 AM 42.8 °F 38.0 °F 33.8 °F 70% 30.08 in 10.0 mi WNW 8.1 mph - N/A   Clear
3:35 AM 42.8 °F 38.6 °F 33.8 °F 70% 30.08 in 10.0 mi West 6.9 mph - N/A   Clear
3:55 AM 41.0 °F 35.8 °F 32.0 °F 70% 30.08 in 10.0 mi West 8.1 mph - N/A   Clear
4:15 AM 41.0 °F 35.8 °F 32.0 °F 70% 30.08 in 10.0 mi West 8.1 mph - N/A   Clear
4:35 AM 41.0 °F 35.8 °F 32.0 °F 70% 30.09 in 10.0 mi West 8.1 mph - N/A   Clear
4:55 AM 41.0 °F 35.8 °F 32.0 °F 70% 30.09 in 10.0 mi West 8.1 mph - N/A   Clear
5:15 AM 41.0 °F 35.8 °F 32.0 °F 70% 30.10 in 10.0 mi West 8.1 mph - N/A   Clear
5:35 AM 41.0 °F 35.8 °F 32.0 °F 70% 30.11 in 10.0 mi West 8.1 mph - N/A   Clear
5:55 AM 39.2 °F 33.0 °F 32.0 °F 75% 30.12 in 10.0 mi West 9.2 mph - N/A   Clear
6:15 AM 41.0 °F 34.7 °F 32.0 °F 70% 30.12 in 10.0 mi West 10.4 mph - N/A   Clear
6:35 AM 39.2 °F 33.0 °F 32.0 °F 75% 30.12 in 10.0 mi West 9.2 mph - N/A   Clear
6:55 AM 39.2 °F 33.0 °F 32.0 °F 75% 30.13 in 10.0 mi West 9.2 mph - N/A   Clear
7:15 AM 39.2 °F 34.2 °F 32.0 °F 75% 30.13 in 10.0 mi West 6.9 mph - N/A   Clear
7:35 AM 39.2 °F 34.2 °F 32.0 °F 75% 30.14 in 10.0 mi West 6.9 mph - N/A   Clear
7:55 AM 39.2 °F 33.6 °F 32.0 °F 75% 30.15 in 10.0 mi West 8.1 mph - N/A   Clear
8:15 AM 41.0 °F 36.4 °F 32.0 °F 70% 30.15 in 10.0 mi West 6.9 mph - N/A   Clear
8:35 AM 42.8 °F 37.5 °F 32.0 °F 66% 30.16 in 10.0 mi West 9.2 mph - N/A   Clear
8:55 AM 42.8 °F 37.0 °F 32.0 °F 66% 30.17 in 10.0 mi West 10.4 mph - N/A   Clear
9:15 AM 44.6 °F 39.7 °F 32.0 °F 61% 30.17 in 10.0 mi West 9.2 mph 17.3 mph N/A   Clear
9:35 AM 44.6 °F 38.1 °F 32.0 °F 61% 30.17 in 10.0 mi West 13.8 mph 18.4 mph N/A   Clear
9:55 AM 46.4 °F 40.4 °F 32.0 °F 57% 30.17 in 10.0 mi West 13.8 mph 21.9 mph N/A   Clear
10:15 AM 46.4 °F 41.1 °F 30.2 °F 53% 30.18 in 10.0 mi WNW 11.5 mph 21.9 mph N/A   Clear
10:35 AM 48.2 °F - 30.2 °F 50% 30.18 in 10.0 mi WNW 16.1 mph 21.9 mph N/A   Clear
10:55 AM 48.2 °F - 30.2 °F 50% 30.18 in 10.0 mi WNW 10.4 mph 21.9 mph N/A   Clear
11:15 AM 50.0 °F - 28.4 °F 43% 30.17 in 10.0 mi WNW 13.8 mph 19.6 mph N/A   Clear
11:35 AM 50.0 °F - 28.4 °F 43% 30.17 in 10.0 mi WNW 12.7 mph 19.6 mph N/A   Clear
11:55 AM 51.8 °F - 28.4 °F 41% 30.16 in 10.0 mi WNW 9.2 mph 25.3 mph N/A   Clear
12:15 PM 51.8 °F - 28.4 °F 41% 30.16 in 10.0 mi WNW 11.5 mph 19.6 mph N/A   Clear
12:35 PM 51.8 °F - 26.6 °F 38% 30.15 in 10.0 mi WNW 12.7 mph 19.6 mph N/A   Clear
12:55 PM 51.8 °F - 26.6 °F 38% 30.15 in 10.0 mi WNW 12.7 mph 21.9 mph N/A   Clear
1:15 PM 51.8 °F - 23.0 °F 33% 30.15 in 10.0 mi WNW 10.4 mph 27.6 mph N/A   Clear
1:35 PM 53.6 °F - 23.0 °F 30% 30.15 in 10.0 mi NW 13.8 mph 26.5 mph N/A   Clear
1:55 PM 53.6 °F - 23.0 °F 30% 30.15 in 10.0 mi WNW 15.0 mph 24.2 mph N/A   Clear
2:15 PM 53.6 °F - 21.2 °F 28% 30.14 in 10.0 mi WNW 13.8 mph 26.5 mph N/A   Clear
2:35 PM 53.6 °F - 23.0 °F 30% 30.14 in 10.0 mi WNW 18.4 mph 25.3 mph N/A   Clear
2:55 PM 53.6 °F - 23.0 °F 30% 30.14 in 10.0 mi NW 16.1 mph 26.5 mph N/A   Clear
3:15 PM 53.6 °F - 21.2 °F 28% 30.14 in 10.0 mi WNW 17.3 mph 28.8 mph N/A   Clear
3:35 PM 53.6 °F - 23.0 °F 30% 30.14 in 10.0 mi NW 11.5 mph 24.2 mph N/A   Clear
3:55 PM 51.8 °F - 21.2 °F 30% 30.14 in 10.0 mi WNW 19.6 mph 27.6 mph N/A   Clear
4:15 PM 51.8 °F - 23.0 °F 33% 30.15 in 10.0 mi WNW 11.5 mph 18.4 mph N/A   Clear
4:35 PM 51.8 °F - 23.0 °F 33% 30.15 in 10.0 mi WNW 12.7 mph 19.6 mph N/A   Clear
4:55 PM 50.0 °F - 23.0 °F 35% 30.16 in 10.0 mi NW 12.7 mph 17.3 mph N/A   Clear
5:15 PM 50.0 °F - 19.4 °F 30% 30.17 in 10.0 mi NW 16.1 mph 23.0 mph N/A   Clear
5:35 PM 46.4 °F 41.5 °F 19.4 °F 34% 30.18 in 10.0 mi NW 10.4 mph 18.4 mph N/A   Clear
5:55 PM 46.4 °F 41.5 °F 19.4 °F 34% 30.18 in 10.0 mi NW 10.4 mph - N/A   Clear
6:15 PM 46.4 °F 42.4 °F 21.2 °F 37% 30.19 in 10.0 mi NW 8.1 mph 17.3 mph N/A   Clear
6:35 PM 44.6 °F 39.2 °F 21.2 °F 39% 30.20 in 10.0 mi NW 10.4 mph 16.1 mph N/A   Clear
6:55 PM 44.6 °F 40.2 °F 21.2 °F 39% 30.21 in 10.0 mi WNW 8.1 mph - N/A   Clear
7:15 PM 44.6 °F 40.2 °F 21.2 °F 39% 30.21 in 10.0 mi WNW 8.1 mph - N/A   Clear
7:35 PM 42.8 °F 37.5 °F 21.2 °F 42% 30.22 in 10.0 mi NW 9.2 mph - N/A   Clear
7:55 PM 42.8 °F 38.6 °F 23.0 °F 46% 30.23 in 10.0 mi WNW 6.9 mph - N/A   Clear
8:15 PM 41.0 °F 36.4 °F 23.0 °F 49% 30.23 in 10.0 mi WNW 6.9 mph - N/A   Clear
8:35 PM 41.0 °F 37.1 °F 23.0 °F 49% 30.23 in 10.0 mi WNW 5.8 mph - N/A   Clear
8:55 PM 41.0 °F 35.8 °F 23.0 °F 49% 30.24 in 10.0 mi WNW 8.1 mph - N/A   Clear
9:15 PM 41.0 °F 36.4 °F 23.0 °F 49% 30.25 in 10.0 mi WNW 6.9 mph - N/A   Clear
9:35 PM 39.2 °F 34.2 °F 23.0 °F 52% 30.25 in 10.0 mi WNW 6.9 mph - N/A   Clear
9:55 PM 39.2 °F 34.2 °F 23.0 °F 52% 30.26 in 10.0 mi WNW 6.9 mph - N/A   Clear
10:15 PM 39.2 °F 34.2 °F 23.0 °F 52% 30.27 in 10.0 mi WNW 6.9 mph - N/A   Clear
10:35 PM 37.4 °F 32.8 °F 23.0 °F 56% 30.27 in 10.0 mi WNW 5.8 mph - N/A   Clear
10:55 PM 37.4 °F 33.8 °F 23.0 °F 56% 30.27 in 10.0 mi West 4.6 mph - N/A   Clear
11:15 PM 37.4 °F 32.8 °F 23.0 °F 56% 30.28 in 10.0 mi West 5.8 mph - N/A   Clear
11:35 PM 37.4 °F 32.1 °F 24.8 °F 60% 30.29 in 10.0 mi West 6.9 mph - N/A   Clear
11:55 PM 37.4 °F 32.8 °F 23.0 °F 56% 30.29 in 10.0 mi West 5.8 mph - N/A   Clear